Location: *
(40.4000°N, 15.1200°E)
Time: 04:19:04
(UTC+00:00)

SeaSat 1 - Pass Details

Date: 09 April 2020
Orbit: 745 x 746 km, 108.0° (Epoch: 05 June)

Event Time Altitude Azimuth Distance (km) Brightness Sun altitude
Rises 18:13:25 0° 21° (NNE) 3,196 5.7 -8.3°
Reaches altitude 10° 18:15:43 10° 18° (NNE) 2,269 5.0 -8.7°
Maximum altitude 18:20:33 59° 300° (WNW) 864 3.2 -9.6°
Drops below altitude 10° 18:25:22 10° 222° (SW) 2,256 5.2 -10.5°
Sets 18:27:39 0° 218° (SW) 3,176 5.9 -10.9°
